STARLINK-11188, 60722

Orbit data source: Space-Track

STARLINK-11188, 60722 is a payload satellite in LEO that was launched on Wed, 28 Aug 2024 UTC via an FALCON 9 launch vehicle from the Air Force Eastern Test Range (AFETR). Payload-class satellites include a variety of spacecraft equipped with specific instruments for various scientific and technological missions. These include communications satellites like Starlink; space stations such as the ISS; scientific satellites like the Hubble; Earth observation satellites from companies like Planet Labs, Umbra, and HawkEye 360; GPS; miniature CubeSats for education and research; and military/defense satellites.

Loading next visibility...
Identifier
60722, 2024-152C
Orbit
LEO
Last TLE update
8 hours ago
Origin
Manufacturer
SpaceX/Seattle
Mission
Operational Commercial Communications
Bus & Motor
STARLINK V2M, Unknown motor
Mass
730 kg wet, ~700 kg dry
Launch date (UTC)
2024-08-28 (9 months ago)
Launch vehicle
FALCON 9
Launch site
Air Force Eastern Test Range (AFETR)
Object type
Payload
Rocket body
Debris
Shape & HBR
Box + 2 Pan, 29 m
Radar Cross Section
36.964 m², Large (>1 m²)

Expand to show TLE details & history

TLE from 8 hours ago
0 STARLINK-11188
1 60722U 24152C   25139.16389416 -.00000338  00000-0  20713-5 0  9992
2 60722  53.1591 128.3741 0001136  82.6519 277.4628 15.69709873 42693
Epoch: 2025-05-19T03:56Z
TLE epoch observation values (Epoch: 2025-05-19T03:56:00.455Z)
Latitude
-0.00002°
Longitude
-167.70826°
Altitude
360.543 km
Speed
7.694 km/s
True Right ascension
08h 33m 29s
True Declination
0° 00' 00"
Sunlit
Object was in daylight at epoch
Visualization orbit readout
Latitude
32.74731°
Longitude
-18.02811°
Altitude
361.439 km
Speed
7.697 km/s
Apparent Right ascension
14h 35m 24s
Apparent Declination
-7° 27' 12"
Sunlit
Object is in full shadow
Visualization observer readout
Local Sidereal Time
20:58:38
Azimuth
267.962° W
Elevation
-9.219°
Doppler factor
1
Orbital elements
Apogee altitude
360.753 km
Perigee altitude
359.222 km
Semi-major axis
6,738.125 km
Eccentricity
0.00011
Inclination
53.1591°
RAAN
128.3741°
Arg. of periapsis
82.6519°
True anomaly
Unknown
Mean anomaly
277.4628°
Eccentric anomaly
Unknown
Mean motion
3.92405 °/min
Orbital period
91.74 mins
BSTAR
0.0000020713
Loading maneuver chart data...
Loading SW <> Apogee altitude chart data...
Loading historical data...
Loading historical data...
Loading historical data...
Loading historical data...
Loading historical data...
Loading historical data...
Loading historical data...

STARLINK-11188 Visibility forecast

Observer location: undefined°, undefined°

Span
Click to sort rows by Start time (UTC) header in descending order
Start Az.
Max El. time (UTC)
Max El. Az.
Max El.
End time (UTC)
End Az.
5 mins2025-05-20 01:29:26.641Z206.593° SW2025-05-20 01:32:26.641Z116.328° SE32.401°2025-05-20 01:34:26.641Z66.536° ENE
|